{"data":{"norad_id":66754,"intl_designator":"2025-276CS","name":"ICEYE-X61","alt_names":[],"object_type":"PAYLOAD","status":"ACTIVE","operator":null,"country":"FIN","launch_date":"2025-11-28","launch_site_code":"AFWTR","launch_vehicle":null,"mission":null,"orbit_class":"UNKNOWN","rcs_meters":null,"size_class":null,"mass_kg":null,"dimensions":null,"purposes":[],"wikipedia_slug":null,"has_3d_model":false,"image_url":null,"decayed_at":null,"tle_current":{"epoch":"2026-09-20T10:21:10.334304Z","epoch_age_seconds":123786,"freshness":"FRESH","line1":"1 66754U 25276CS  26263.43136961  .00002036  00000+0  10043-3 0  9993","line2":"2 66754  97.4122 335.1366 0003654  30.1990 329.9455 15.19035148 44879","mean_motion":15.19035148,"eccentricity":0.0003654,"inclination_deg":97.4122,"raan_deg":335.1366,"arg_perigee_deg":30.199,"mean_anomaly_deg":329.9455,"bstar":0.00010043,"rev_number":4487,"period_min":94.797016507218,"perigee_km":506.23885162975,"apogee_km":511.27179253873,"semimajor_km":6886.8923220842,"source":"CELESTRAK","updated_at":"2026-09-21T09:00:16.180594Z"}}}